Flag Weather past 2 weeks in Vallejo, California, U.S.A.

Now
70 °F

Sunny.


Feels Like: 77 °F
Forecast: 54 / 70 °F
Wind: No wind

Location: Napa County Airport

Current Time: Oct 30, 2014 at 12:13:32 PM

Latest Report: Oct 30, 2014 at 10:54 AM


Visibility: 7 mi

Pressure: 29.90 "Hg

Humidity: 55%

Dew point: 53 °F

Location of VallejoLocation

Historic Weather in Vallejo — Graph

°F

Vallejo temperature yesterday

Maximum temperature yesterday: 80 °F (at 2:54 PM)
Minimum temperature yesterday: 45 °F (at 5:54 AM)
Average temperature yesterday: 61 °F

Past Weeks' High & Low Weather Summary

 TemperatureHumidityPressure
High80 °F (Oct 29, 2:54 PM)100% (Oct 16, 3:54 AM)30.17 "Hg (Oct 16, 3:54 AM)
Low39 °F (Oct 27, 2:54 AM)32% (Oct 29, 2:54 PM)29.81 "Hg (Oct 19, 5:54 PM)
Average59 °F79%29.98 "Hg
* Reported Oct 15 10:54 AM — Oct 30 10:54 AM, Vallejo, Weather by CustomWeather, © 2014

Note: Actual official high and low records may vary slightly from our data, if they occured in-between our weather recording intervals... More about our weather records

Advertising

Vallejo weather history for previous 24 hours

 ConditionsComfort  
Time TempWeatherWind HumidityBarometerVisibility
10:54 AM
Oct 30
70 °FSunny.No wind55%29.90 "Hg7 mi
9:54 AM63 °FSunny.3 mph73%29.92 "Hg10 mi
8:54 AM57 °FCool.No wind90%29.92 "Hg10 mi
7:54 AM54 °FClear.7 mph90%29.90 "Hg10 mi
6:54 AM54 °FClear.6 mph90%29.90 "Hg10 mi
5:54 AM55 °FClear.5 mph90%29.91 "Hg10 mi
4:54 AM54 °FClear.7 mph90%29.90 "Hg10 mi
3:54 AM50 °FClear.No wind89%29.91 "Hg10 mi
2:54 AM52 °FClear.No wind86%29.93 "Hg10 mi
1:54 AM56 °FClear.5 mph84%29.93 "Hg10 mi
12:54 AM58 °FClear.5 mph78%29.94 "Hg10 mi
11:54 PM
Oct 29
59 °FClear.3 mph75%29.96 "Hg10 mi
10:54 PM59 °FClear.6 mph72%29.96 "Hg10 mi
9:54 PM60 °FClear.3 mph78%29.96 "Hg10 mi
8:54 PM60 °FClear.3 mph67%29.96 "Hg10 mi
7:54 PM62 °FClear.3 mph62%29.96 "Hg10 mi
6:54 PM60 °FSunny.3 mph65%29.95 "Hg10 mi
5:54 PM72 °FSunny.3 mph46%29.95 "Hg10 mi
4:54 PM76 °FSunny.8 mph37%29.96 "Hg10 mi
3:54 PM78 °FSunny.9 mph39%29.98 "Hg10 mi
2:54 PM80 °FSunny.6 mph32%29.99 "Hg10 mi
1:54 PM79 °FSunny.5 mph34%30.00 "Hg10 mi
12:54 PM76 °FSunny.5 mph37%30.05 "Hg10 mi
Weather by CustomWeather, © 2014

See weather overviewHow to use our weather pages